Location: Melbourne
(37.8170°S, 144.9670°E)
Time: 09:24:58
(UTC+11:00)

CZ-3 R/B - Visible Passes

Search period start: 23 October 2014 00:00
Search period end: 02 November 2014 00:00
Orbit: 204 x 14769 km, 28.5° (Epoch: 21 October)

Date Brightness Start Highest point End Pass type
(mag) Time Alt. Az. Time Alt. Az. Time Alt. Az.
23 Oct 5.7 02:15:36 10° W 02:56:21 62° NNW 05:15:10 10° NE visible
23 Oct 3.6 20:01:59 10° NNW 20:08:14 32° NE 20:31:28 10° E visible
24 Oct 5.4 00:42:49 10° W 01:07:16 69° N 03:27:18 10° NE visible
24 Oct 6.5 05:44:13 10° W 06:48:27 29° WNW 08:27:38 10° NNW visible
24 Oct 4.7 23:10:45 10° WNW 23:25:20 69° N 01:19:44 10° ENE visible
25 Oct 6.1 04:01:09 10° W 04:59:24 45° NW 06:59:33 10° N visible
25 Oct 3.9 21:39:00 10° WNW 21:48:10 59° NNE 22:50:46 10° E visible
26 Oct 5.8 02:23:49 10° W 03:05:06 58° NNW 05:21:09 10° NNE visible
26 Oct 3.5 20:07:36 10° NNW 20:13:46 36° NE 20:38:59 10° E visible
27 Oct 5.4 00:48:36 10° W 01:13:31 66° NNW 03:31:39 10° NE visible
27 Oct 6.6 05:52:30 10° W 06:51:45 25° WNW 08:25:50 10° NNW visible
27 Oct 4.7 23:14:14 10° WNW 23:28:56 68° N 01:22:30 10° ENE visible
28 Oct 6.2 04:04:55 10° W 05:01:06 41° NW 06:59:09 10° N visible
28 Oct 3.8 21:40:13 10° WNW 21:49:15 60° NNE 22:51:28 10° E visible
29 Oct 5.8 02:24:51 10° W 03:05:14 55° NNW 05:19:04 10° NNE visible
29 Oct 3.3 20:06:30 10° NNW 20:12:25 39° NE 20:37:28 10° E visible
30 Oct 5.4 00:47:18 10° W 01:11:43 64° NNW 03:26:57 10° NE visible
30 Oct 6.6 05:53:02 10° W 06:47:38 22° WNW 08:16:34 10° NNW visible
30 Oct 4.7 23:10:44 10° W 23:25:01 67° N 01:14:22 10° ENE visible
31 Oct 6.2 04:01:16 10° W 04:54:41 38° NW 06:51:22 10° N visible
31 Oct 3.8 21:34:33 10° WNW 21:43:12 61° NNE 22:41:19 10° E visible
01 Nov 5.8 02:18:42 10° W 02:57:01 52° NNW 05:09:00 10° NNE visible
01 Nov 3.2 19:58:37 10° NW 20:04:10 40° NNE 20:27:12 10° E visible
